| time (UTC) | temp F | wind direction | speed MPH | gust MPH | rain 1hr in | rain 24hr in | rain mn in | humidity % | barometer mb |
| 20260508114549 | 52 | 121 | 0.0 | 2.0 | 0.00 | 0.00 | 0.00 | 95 | 1017.9 |
| 20260508113106 | 52 | 0 | 0.0 | 1.0 | 0.00 | 0.00 | 0.00 | 95 | 1017.9 |
| 20260508111603 | 52 | 121 | 0.0 | 1.0 | 0.00 | 0.00 | 0.00 | 95 | 1017.9 |
| 20260508110058 | 52 | 0 | 0.0 | 1.0 | 0.00 | 0.00 | 0.00 | 95 | 1018.1 |
| 20260508104554 | 52 | 121 | 0.0 | 3.0 | 0.00 | 0.00 | 0.00 | 95 | 1018.0 |
| 20260508103059 | 52 | 119 | 1.0 | 4.0 | 0.00 | 0.00 | 0.00 | 94 | 1018.0 |
| 20260508101600 | 52 | 161 | 1.0 | 4.0 | 0.00 | 0.00 | 0.00 | 94 | 1017.8 |
| 20260508100057 | 52 | 183 | 1.0 | 4.0 | 0.00 | 0.00 | 0.00 | 94 | 1017.9 |
| 20260508094549 | 52 | 192 | 0.0 | 4.0 | 0.00 | 0.00 | 0.00 | 93 | 1017.9 |
| 20260508093050 | 52 | 129 | 0.0 | 3.0 | 0.00 | 0.00 | 0.00 | 93 | 1017.9 |
| 20260508091558 | 52 | 0 | 0.0 | 3.0 | 0.00 | 0.00 | 0.00 | 93 | 1017.9 |
| 20260508090107 | 52 | 138 | 1.0 | 3.0 | 0.00 | 0.00 | 0.00 | 93 | 1017.9 |
| 20260508084549 | 52 | 0 | 0.0 | 2.0 | 0.00 | 0.00 | 0.00 | 93 | 1017.8 |
| 20260508083052 | 52 | 130 | 1.0 | 3.0 | 0.00 | 0.00 | 0.00 | 93 | 1017.9 |
| 20260508081551 | 52 | 0 | 0.0 | 6.0 | 0.00 | 0.00 | 0.00 | 93 | 1018.0 |
| 20260508080054 | 53 | 211 | 0.0 | 2.0 | 0.00 | 0.00 | 0.00 | 93 | 1017.9 |
| 20260508074555 | 53 | 204 | 0.0 | 3.0 | 0.00 | 0.00 | 0.00 | 93 | 1018.0 |
| 20260508073102 | 53 | 0 | 0.0 | 4.0 | 0.00 | 0.00 | 0.00 | 93 | 1018.0 |
| 20260508071558 | 53 | 134 | 1.0 | 6.0 | 0.00 | 0.00 | 0.00 | 93 | 1017.8 |
| 20260508070056 | 53 | 120 | 1.0 | 4.0 | 0.00 | 0.00 | 0.00 | 92 | 1017.8 |
| 20260508064549 | 53 | 119 | 3.0 | 6.0 | 0.00 | 0.00 | 0.00 | 92 | 1017.9 |
| 20260508063049 | 53 | 128 | 2.0 | 7.0 | 0.00 | 0.00 | 0.00 | 92 | 1017.8 |
| 20260508061552 | 53 | 116 | 1.0 | 7.0 | 0.00 | 0.00 | 0.00 | 91 | 1017.9 |
| 20260508060053 | 54 | 122 | 1.0 | 4.0 | 0.00 | 0.00 | 0.00 | 90 | 1017.9 |
| 20260508054548 | 54 | 119 | 3.0 | 9.0 | 0.00 | 0.00 | 0.00 | 90 | 1017.8 |
| 20260508053113 | 54 | 129 | 2.0 | 6.0 | 0.00 | 0.00 | 0.00 | 91 | 1017.8 |
| 20260508051551 | 54 | 117 | 2.0 | 6.0 | 0.00 | 0.00 | 0.00 | 90 | 1017.8 |
| 20260508050056 | 54 | 105 | 1.0 | 6.0 | 0.00 | 0.00 | 0.00 | 91 | 1017.8 |
| 20260508044557 | 54 | 136 | 2.0 | 7.0 | 0.00 | 0.00 | 0.00 | 91 | 1017.7 |
| 20260508043050 | 54 | 135 | 2.0 | 7.0 | 0.00 | 0.00 | 0.00 | 90 | 1017.6 |
| 20260508041614 | 54 | 114 | 3.0 | 7.0 | 0.00 | 0.00 | 0.00 | 90 | 1017.4 |
| 20260508040109 | 55 | 112 | 2.0 | 9.0 | 0.00 | 0.00 | 0.00 | 88 | 1017.2 |
| 20260508034552 | 56 | 119 | 3.0 | 8.0 | 0.00 | 0.00 | 0.00 | 87 | 1017.0 |
| 20260508033049 | 57 | 145 | 3.0 | 7.0 | 0.00 | 0.00 | 0.00 | 85 | 1017.1 |
| 20260508031554 | 58 | 115 | 3.0 | 7.0 | 0.00 | 0.00 | 0.00 | 84 | 1016.8 |
| 20260508030050 | 59 | 132 | 4.0 | 11.0 | 0.00 | 0.00 | 0.00 | 82 | 1016.7 |
| 20260508024604 | 60 | 111 | 3.0 | 9.0 | 0.00 | 0.00 | 0.00 | 81 | 1016.5 |
| 20260508023050 | 61 | 136 | 3.0 | 8.0 | 0.00 | 0.00 | 0.00 | 79 | 1016.3 |
| 20260508021552 | 62 | 123 | 3.0 | 8.0 | 0.00 | 0.00 | 0.00 | 78 | 1016.5 |
| 20260508020053 | 63 | 182 | 4.0 | 9.0 | 0.00 | 0.00 | 0.00 | 76 | 1016.4 |
| 20260508014554 | 64 | 136 | 3.0 | 9.0 | 0.00 | 0.00 | 0.00 | 75 | 1016.4 |
| 20260508013051 | 64 | 140 | 4.0 | 9.0 | 0.00 | 0.00 | 0.00 | 75 | 1016.5 |
| 20260508011556 | 64 | 153 | 5.0 | 11.0 | 0.00 | 0.00 | 0.00 | 75 | 1016.6 |
| 20260508010051 | 65 | 126 | 4.0 | 11.0 | 0.00 | 0.00 | 0.00 | 74 | 1016.7 |
| 20260508004628 | 65 | 114 | 5.0 | 12.0 | 0.00 | 0.00 | 0.00 | 73 | 1016.8 |
| 20260508003103 | 66 | 107 | 7.0 | 11.0 | 0.00 | 0.00 | 0.00 | 72 | 1016.8 |
| 20260508001553 | 67 | 120 | 4.0 | 11.0 | 0.00 | 0.00 | 0.00 | 72 | 1016.7 |
| 20260508000055 | 68 | 141 | 5.0 | 10.0 | 0.00 | 0.00 | 0.00 | 70 | 1016.7 |
| 20260507234553 | 69 | 117 | 4.0 | 11.0 | 0.00 | 0.00 | 0.00 | 69 | 1016.6 |
| 20260507233100 | 70 | 161 | 4.0 | 10.0 | 0.00 | 0.00 | 0.00 | 68 | 1016.7 |
| 20260507231551 | 71 | 144 | 2.0 | 10.0 | 0.00 | 0.00 | 0.00 | 69 | 1016.9 |
| 20260507230056 | 71 | 126 | 4.0 | 8.0 | 0.00 | 0.00 | 0.00 | 68 | 1016.8 |
| 20260507224557 | 71 | 106 | 3.0 | 10.0 | 0.00 | 0.00 | 0.00 | 68 | 1017.1 |
| 20260507223050 | 71 | 127 | 3.0 | 9.0 | 0.00 | 0.00 | 0.00 | 69 | 1017.2 |
| 20260507221550 | 71 | 227 | 3.0 | 8.0 | 0.00 | 0.00 | 0.00 | 69 | 1017.4 |
| 20260507220049 | 70 | 117 | 4.0 | 9.0 | 0.00 | 0.00 | 0.00 | 70 | 1017.5 |
| 20260507214604 | 69 | 105 | 4.0 | 8.0 | 0.00 | 0.00 | 0.00 | 70 | 1017.6 |
| 20260507213102 | 69 | 108 | 2.0 | 7.0 | 0.00 | 0.00 | 0.00 | 72 | 1017.9 |
| 20260507211552 | 69 | 99 | 1.0 | 8.0 | 0.00 | 0.00 | 0.00 | 73 | 1018.0 |
| 20260507210054 | 69 | 130 | 2.0 | 10.0 | 0.00 | 0.00 | 0.00 | 72 | 1018.2 |
| 20260507204549 | 69 | 211 | 3.0 | 8.0 | 0.00 | 0.00 | 0.00 | 72 | 1018.3 |
| 20260507203053 | 68 | 217 | 2.0 | 7.0 | 0.00 | 0.00 | 0.00 | 74 | 1018.3 |
| 20260507201552 | 67 | 169 | 3.0 | 7.0 | 0.00 | 0.00 | 0.00 | 73 | 1018.6 |
| 20260507200050 | 67 | 220 | 2.0 | 8.0 | 0.00 | 0.00 | 0.00 | 73 | 1018.8 |
| 20260507194615 | 66 | 80 | 1.0 | 6.0 | 0.00 | 0.00 | 0.00 | 74 | 1018.7 |
| 20260507193056 | 65 | 173 | 1.0 | 9.0 | 0.00 | 0.00 | 0.00 | 76 | 1019.0 |
| 20260507191550 | 64 | 5 | 1.0 | 7.0 | 0.00 | 0.00 | 0.00 | 77 | 1019.2 |
| 20260507190054 | 64 | 295 | 2.0 | 5.0 | 0.00 | 0.00 | 0.00 | 76 | 1019.4 |
| 20260507184551 | 63 | 128 | 0.0 | 4.0 | 0.00 | 0.00 | 0.00 | 80 | 1019.4 |
| 20260507183050 | 61 | 22 | 1.0 | 4.0 | 0.00 | 0.00 | 0.00 | 83 | 1019.6 |
| 20260507181555 | 60 | 161 | 1.0 | 6.0 | 0.00 | 0.00 | 0.00 | 84 | 1019.5 |
| 20260507180050 | 59 | 121 | 0.0 | 3.0 | 0.00 | 0.00 | 0.00 | 84 | 1019.6 |
| 20260507174558 | 59 | 200 | 0.0 | 4.0 | 0.00 | 0.00 | 0.00 | 86 | 1019.6 |
| 20260507173119 | 58 | 0 | 0.0 | 3.0 | 0.00 | 0.00 | 0.00 | 88 | 1019.6 |
| 20260507171554 | 57 | 0 | 1.0 | 3.0 | 0.00 | 0.00 | 0.00 | 87 | 1019.6 |
| 20260507170108 | 56 | 295 | 1.0 | 4.0 | 0.00 | 0.00 | 0.00 | 88 | 1019.7 |
| 20260507164558 | 55 | 304 | 0.0 | 3.0 | 0.00 | 0.00 | 0.00 | 90 | 1019.7 |
| 20260507163050 | 55 | 273 | 0.0 | 2.0 | 0.00 | 0.00 | 0.00 | 91 | 1019.6 |
| 20260507161602 | 54 | 0 | 0.0 | 2.0 | 0.00 | 0.00 | 0.00 | 93 | 1019.6 |
| 20260507160049 | 53 | 0 | 1.0 | 3.0 | 0.00 | 0.00 | 0.00 | 94 | 1019.6 |
| 20260507154550 | 53 | 117 | 0.0 | 4.0 | 0.00 | 0.00 | 0.00 | 95 | 1019.5 |
| 20260507153055 | 52 | 0 | 0.0 | 3.0 | 0.00 | 0.00 | 0.00 | 95 | 1019.5 |
| 20260507151548 | 52 | 0 | 1.0 | 3.0 | 0.00 | 0.00 | 0.00 | 95 | 1019.5 |
| 20260507150059 | 52 | 112 | 0.0 | 1.0 | 0.00 | 0.00 | 0.00 | 95 | 1019.5 |
| 20260507144600 | 52 | 112 | 0.0 | 3.0 | 0.00 | 0.00 | 0.00 | 96 | 1019.6 |
| 20260507143059 | 52 | 111 | 0.0 | 2.0 | 0.00 | 0.00 | 0.00 | 96 | 1019.4 |
| 20260507141624 | 52 | 0 | 0.0 | 2.0 | 0.00 | 0.00 | 0.00 | 95 | 1019.3 |
| 20260507140051 | 52 | 0 | 0.0 | 2.0 | 0.00 | 0.00 | 0.00 | 96 | 1019.2 |
| 20260507134556 | 52 | 0 | 0.0 | 2.0 | 0.00 | 0.00 | 0.00 | 96 | 1019.1 |
| 20260507133056 | 52 | 129 | 1.0 | 3.0 | 0.00 | 0.00 | 0.00 | 95 | 1019.0 |
| 20260507131553 | 52 | 149 | 0.0 | 1.0 | 0.00 | 0.00 | 0.00 | 95 | 1018.8 |
| 20260507130053 | 52 | 0 | 0.0 | 2.0 | 0.00 | 0.00 | 0.00 | 95 | 1018.8 |
| 20260507124554 | 52 | 0 | 0.0 | 2.0 | 0.00 | 0.00 | 0.00 | 95 | 1018.6 |
| 20260507123053 | 52 | 0 | 0.0 | 3.0 | 0.00 | 0.00 | 0.00 | 95 | 1018.7 |
| 20260507121550 | 52 | 0 | 0.0 | 3.0 | 0.00 | 0.00 | 0.00 | 94 | 1018.7 |